Weather History for Wright-Patt AFB, OH

Change the Weather History Date:

Tuesday, June 18, 2013

  Actual Average Record
Temperature  
Mean Temperature 74 °F -  
Max Temperature 82 °F 79 °F 95 °F (2007)
Min Temperature 64 °F 59 °F 48 °F (1999)
Cooling Degree Days 9    
Growing Degree Days 24 (Base 50)    
Moisture  
Dew Point 61 °F    
Average Humidity 65    
Maximum Humidity 80    
Minimum Humidity 45    
Precipitation  
Precipitation 0.00 in - - ()
Sea Level Pressure  
Sea Level Pressure 29.91 in    
Wind  
Wind Speed 7 mph (NW)    
Max Wind Speed 15 mph    
Max Gust Speed 25 mph    
Visibility 10 miles    
Events Thunderstorm    
Averages and records for this station are not official NWS values.
T = Trace of Precipitation, MM = Missing Value Source: NWS Daily Summary

Daily Weather History Graph

Daily Weather History Graph

Search for Another Location

Airport:

Trip Planner

Search our weather history database for the weather conditions in past years. The results will help you decide how hot, cold, wet, or windy it might be!

Date:

Astronomy

Jun. 18, 2013 Rise Set
Actual Time 6:07 AM EDT 9:07 PM EDT
Civil Twilight 5:34 AM EDT 9:40 PM EDT
Nautical Twilight 4:53 AM EDT 10:21 PM EDT
Astronomical Twilight 4:05 AM EDT 11:09 PM EDT
Moon 3:51 PM EDT (6/18) 2:14 AM EDT (6/18)
Length of Visible Light 16h 05m
Length of Day
14h 59m
Waxing Gibbous, 70% of the Moon is Illuminated
Jun 18
Waxing Gibbous
Jun 23
Full
Jun 30
Last Quarter
Jul 8
New
Jul 15
First Quarter

Hourly Weather History & Observations

Time (EDT) Temp. Heat Index Dew Point Humidity Pressure Visibility Wind Dir Wind Speed Gust Speed Precip Events Conditions
12:58 AM 71.8 °F - 65.5 °F 80% 29.88 in 10.0 mi North 3.5 mph - N/A   Overcast
1:58 AM 71.6 °F - 63.9 °F 76% 29.89 in 10.0 mi SW 6.9 mph - N/A   Overcast
2:58 AM 69.6 °F - 63.1 °F 80% 29.89 in 10.0 mi South 4.6 mph - N/A   Overcast
3:58 AM 70.2 °F - 62.8 °F 77% 29.87 in 10.0 mi West 4.6 mph - N/A   Overcast
4:58 AM 70.3 °F - 62.8 °F 77% 29.87 in 10.0 mi West 2.3 mph - N/A   Overcast
5:58 AM 70.2 °F - 62.2 °F 76% 29.88 in 10.0 mi SW 2.3 mph - N/A   Overcast
6:43 AM 69.8 °F - 62.6 °F 78% 29.90 in 10.0 mi South 8.1 mph - N/A Thunderstorm Overcast
6:58 AM 69.6 °F - 62.4 °F 78% 29.89 in 10.0 mi South 11.5 mph - N/A Thunderstorm Mostly Cloudy
7:12 AM 69.8 °F - 62.6 °F 78% 29.91 in 10.0 mi South 11.5 mph - N/A   Mostly Cloudy
7:58 AM 69.1 °F - 61.0 °F 75% 29.91 in 10.0 mi SSW 8.1 mph - N/A   Mostly Cloudy
8:58 AM 69.6 °F - 63.0 °F 79% 29.94 in 10.0 mi SSW 11.5 mph - N/A   Mostly Cloudy
9:58 AM 72.3 °F - 63.3 °F 73% 29.92 in 10.0 mi WSW 10.4 mph - N/A   Mostly Cloudy
10:58 AM 75.2 °F - 62.8 °F 65% 29.91 in 10.0 mi WNW 5.8 mph - N/A   Partly Cloudy
11:58 AM 78.4 °F - 63.5 °F 60% 29.91 in 10.0 mi WNW 8.1 mph - N/A   Scattered Clouds
12:58 PM 80.4 °F 81.3 °F 61.0 °F 51% 29.90 in 10.0 mi North 6.9 mph - N/A   Scattered Clouds
1:58 PM 81.9 °F 81.9 °F 58.8 °F 45% 29.90 in 10.0 mi Variable 4.6 mph - N/A   Scattered Clouds
2:58 PM 81.9 °F 82.6 °F 61.7 °F 50% 29.89 in 10.0 mi NNW 8.1 mph - N/A   Scattered Clouds
3:58 PM 82.8 °F 83.1 °F 60.6 °F 47% 29.89 in 10.0 mi North 11.5 mph - N/A   Partly Cloudy
4:58 PM 81.9 °F 82.1 °F 59.4 °F 46% 29.89 in 10.0 mi North 10.4 mph - N/A   Partly Cloudy
5:58 PM 80.8 °F 81.0 °F 57.6 °F 45% 29.89 in 10.0 mi North 15.0 mph 19.6 mph N/A   Partly Cloudy
6:58 PM 79.5 °F - 56.5 °F 45% 29.89 in 10.0 mi North 10.4 mph 25.3 mph N/A   Partly Cloudy
7:58 PM 77.0 °F - 57.7 °F 51% 29.93 in 10.0 mi NNE 15.0 mph - N/A   Mostly Cloudy
8:58 PM 72.1 °F - 57.9 °F 61% 29.96 in 10.0 mi NE 15.0 mph - N/A   Mostly Cloudy
9:58 PM 68.9 °F - 56.1 °F 64% 29.98 in 10.0 mi NE 13.8 mph - N/A   Scattered Clouds
10:58 PM 66.6 °F - 55.8 °F 68% 30.00 in 10.0 mi NE 15.0 mph 24.2 mph N/A   Scattered Clouds
11:58 PM 64.0 °F - 54.9 °F 72% 30.03 in 10.0 mi NE 9.2 mph - N/A   Scattered Clouds